Home   Weather   38°00'S, 145°13'E   Past weeks
Flag for Australia

Past Weather in 38°00'S, 145°13'E, Australia — Yesterday and Last 2 Weeks

Now
39 °F

Passing clouds.


Feels Like: 33 °F
Forecast: 54 / 44 °F
Wind: 9 mph from West

Location: Melbourne Airport

Current Time: Jun 21, 2019 at 8:00:53 am

Latest Report: Jun 21, 2019 at 7:00 am


Visibility: N/A

Pressure: 30.33 "Hg

Humidity: 100%

Dew Point: 39 °F

Location of 38°00'S, 145°13'ELocation

Past Weather in 38°00'S, 145°13'E — Graph

°F

38°00'S, 145°13'E Temperature Yesterday

Maximum temperature yesterday: 50 °F (at 2:00 pm)
Minimum temperature yesterday: 41 °F (at 8:30 pm)
Average temperature yesterday: 45 °F

High & Low Weather Summary for the Past Weeks

 TemperatureHumidityPressure
High64 °F (Jun 8, 2:00 pm)100% (Jun 13, 11:00 pm)30.63 "Hg (Jun 13, 11:00 pm)
Low41 °F (Jun 7, 11:00 pm)42% (Jun 10, 2:00 pm)29.80 "Hg (Jun 12, 1:00 pm)
Average52 °F78%30.17 "Hg
* Reported Jun 6 6:00 am — Jun 21 6:30 am, 38°00'S, 145°13'E. Weather by CustomWeather, © 2019

Note: Actual official high and low records may vary slightly from our data, if they occured in-between our weather recording intervals... More about our weather records

Advertising

38°00'S, 145°13'E Weather History for the Previous 24 Hours

Scroll right to see more
 ConditionsComfort  
Time TempWeatherWind HumidityBarometerVisibility
6:30 am
Fri, Jun 21
41 °FPassing clouds.6 mph93%30.33 "HgN/A
6:00 am41 °FPartly cloudy.7 mph93%30.33 "HgN/A
5:30 am43 °FSprinkles. Partly cloudy.8 mph87%30.33 "HgN/A
5:16 am43 °FRain showers. Partly cloudy.9 mph93%30.33 "Hg3 mi
5:00 am43 °FSprinkles. Partly cloudy.8 mph87%30.33 "Hg6 mi
4:30 am41 °FPassing clouds.9 mph93%30.33 "HgN/A
4:00 am41 °FPassing clouds.12 mph93%30.33 "HgN/A
3:30 am41 °FSprinkles. Partly cloudy.9 mph93%30.33 "HgN/A
3:00 am43 °FSprinkles. Passing clouds.6 mph87%30.33 "HgN/A
2:30 am43 °FPassing clouds.8 mph87%30.33 "HgN/A
2:00 am41 °FPassing clouds.8 mph93%30.33 "HgN/A
1:30 am43 °FPassing clouds.8 mph87%30.33 "HgN/A
1:00 am43 °FPassing clouds.8 mph87%30.33 "HgN/A
12:30 am43 °FPassing clouds.9 mph87%30.33 "HgN/A
12:00 am43 °FPassing clouds.9 mph87%30.33 "HgN/A
11:30 pm
Thu, Jun 20
43 °FPassing clouds.9 mph87%30.33 "HgN/A
11:00 pm43 °FPassing clouds.8 mph87%30.33 "HgN/A
10:30 pm43 °FPassing clouds.8 mph93%30.30 "HgN/A
10:00 pm43 °FPartly cloudy.9 mph93%30.33 "HgN/A
9:30 pm43 °FSprinkles. Partly cloudy.9 mph87%30.30 "HgN/A
9:00 pm41 °FPassing clouds.8 mph93%30.30 "HgN/A
8:30 pm41 °FPassing clouds.8 mph93%30.30 "HgN/A
8:00 pm43 °FPassing clouds.8 mph93%30.30 "HgN/A
7:00 pm45 °FPartly cloudy.8 mph93%30.30 "HgN/A
6:00 pm46 °FPassing clouds.7 mph87%30.27 "HgN/A
5:30 pm46 °FPassing clouds.7 mph87%30.27 "HgN/A
5:00 pm46 °FPartly sunny.8 mph87%30.24 "HgN/A
4:00 pm48 °FBroken clouds.8 mph76%30.24 "HgN/A
3:30 pm48 °FScattered showers. Broken clouds.13 mph76%30.24 "HgN/A
3:00 pm48 °FScattered showers. Partly sunny.8 mph82%30.24 "HgN/A
2:00 pm50 °FBroken clouds.10 mph71%30.24 "HgN/A
1:30 pm48 °FPartly sunny.14 mph76%30.24 "HgN/A
1:00 pm48 °FBroken clouds.10 mph76%30.27 "HgN/A
12:30 pm48 °FBroken clouds.9 mph76%30.27 "HgN/A
12:00 pm48 °FPartly sunny.8 mph76%30.27 "HgN/A
11:00 am46 °FDrizzle. Partly sunny.8 mph87%30.30 "HgN/A
10:00 am45 °FSprinkles. Partly sunny.9 mph93%30.30 "HgN/A
9:30 am45 °FDrizzle. Broken clouds.8 mph93%30.30 "HgN/A
9:00 am45 °FPartly sunny.6 mph93%30.30 "HgN/A
8:30 am45 °FScattered showers. Partly sunny.6 mph93%30.30 "HgN/A
8:00 am43 °FBroken clouds.6 mph93%30.30 "HgN/A
Weather by CustomWeather, © 2019

See weather overview